Time,TemperatureF,DewpointF,PressureIn,WindDirection,WindDirectionDegrees,WindSpeedMPH,WindSpeedGustMPH,Humidity,HourlyPrecipIn,Conditions,Clouds,dailyrainin,SoftwareType,DateUTC
2013-03-27 00:00:00,36.0,16.1,30.03,WSW,248,6.0,6.0,44,0.00,,,0.00,WUHU216HW,2013-03-27 07:00:00,
2013-03-27 00:05:00,36.4,16.4,30.03,WSW,248,0.7,6.0,44,0.00,,,0.00,WUHU216HW,2013-03-27 07:05:00,
2013-03-27 00:10:00,36.5,16.6,30.03,WSW,248,1.8,6.0,44,0.00,,,0.00,WUHU216HW,2013-03-27 07:10:00,
2013-03-27 00:15:00,36.5,16.0,30.03,WSW,248,2.9,3.4,43,0.00,,,0.00,WUHU216HW,2013-03-27 07:15:00,
2013-03-27 00:20:00,36.7,16.2,30.03,SW,225,2.0,3.4,43,0.00,,,0.00,WUHU216HW,2013-03-27 07:20:00,
2013-03-27 00:25:00,36.7,16.2,30.03,SSW,203,3.6,3.6,43,0.00,,,0.00,WUHU216HW,2013-03-27 07:25:00,
2013-03-27 00:30:00,36.4,15.9,30.03,SSE,158,2.7,4.7,43,0.00,,,0.00,WUHU216HW,2013-03-27 07:30:00,
2013-03-27 00:35:00,35.6,15.2,30.03,SE,135,2.2,4.7,43,0.00,,,0.00,WUHU216HW,2013-03-27 07:35:00,
2013-03-27 00:40:00,34.9,15.1,30.03,SSE,158,3.8,4.5,44,0.00,,,0.00,WUHU216HW,2013-03-27 07:40:00,
2013-03-27 00:45:00,34.4,14.6,30.03,South,180,4.0,4.7,44,0.00,,,0.00,WUHU216HW,2013-03-27 07:45:00,
2013-03-27 00:50:00,34.2,15.0,30.03,SSW,203,4.7,5.1,45,0.00,,,0.00,WUHU216HW,2013-03-27 07:50:00,
2013-03-27 00:55:00,33.8,14.6,30.03,SSE,158,3.4,5.1,45,0.00,,,0.00,WUHU216HW,2013-03-27 07:55:00,
2013-03-27 01:00:00,33.7,15.0,30.03,South,180,4.0,4.7,46,0.00,,,0.00,WUHU216HW,2013-03-27 08:00:00,
2013-03-27 01:05:00,33.5,14.8,30.03,SSE,158,3.8,4.7,46,0.00,,,0.00,WUHU216HW,2013-03-27 08:05:00,
2013-03-27 01:10:00,33.1,14.4,30.03,South,180,2.0,4.7,46,0.00,,,0.00,WUHU216HW,2013-03-27 08:10:00,
2013-03-27 01:15:00,32.8,14.6,30.03,SE,135,2.9,4.7,47,0.00,,,0.00,WUHU216HW,2013-03-27 08:15:00,
2013-03-27 01:20:00,32.4,14.3,30.03,SSE,158,5.4,5.8,47,0.00,,,0.00,WUHU216HW,2013-03-27 08:20:00,
2013-03-27 01:25:00,32.0,14.5,30.03,SE,135,2.9,5.8,48,0.00,,,0.00,WUHU216HW,2013-03-27 08:25:00,
2013-03-27 01:30:00,32.0,14.5,30.03,South,180,4.7,4.9,48,0.00,,,0.00,WUHU216HW,2013-03-27 08:30:00,
2013-03-27 01:35:00,31.9,14.9,30.03,SE,135,2.2,4.7,49,0.00,,,0.00,WUHU216HW,2013-03-27 08:35:00,
2013-03-27 01:40:00,31.7,14.7,30.03,SE,135,2.5,4.7,49,0.00,,,0.00,WUHU216HW,2013-03-27 08:40:00,
2013-03-27 01:45:00,31.3,14.3,30.03,SSE,158,3.6,3.8,49,0.00,,,0.00,WUHU216HW,2013-03-27 08:45:00,
2013-03-27 01:50:00,31.1,14.1,30.03,SSE,158,4.0,4.7,49,0.00,,,0.00,WUHU216HW,2013-03-27 08:50:00,
2013-03-27 01:55:00,31.0,14.5,30.03,South,180,2.9,4.7,50,0.00,,,0.00,WUHU216HW,2013-03-27 08:55:00,
2013-03-27 02:00:00,31.0,14.5,30.03,South,180,3.8,4.7,50,0.00,,,0.00,WUHU216HW,2013-03-27 09:00:00,
2013-03-27 02:05:00,30.8,14.3,30.02,SSE,158,3.4,5.1,50,0.00,,,0.00,WUHU216HW,2013-03-27 09:05:00,
2013-03-27 02:10:00,30.8,14.8,30.02,SSE,158,3.1,5.1,51,0.00,,,0.00,WUHU216HW,2013-03-27 09:10:00,
2013-03-27 02:15:00,30.6,14.6,30.02,SSE,158,3.6,4.3,51,0.00,,,0.00,WUHU216HW,2013-03-27 09:15:00,
2013-03-27 02:20:00,30.6,14.6,30.02,South,180,4.0,4.7,51,0.00,,,0.00,WUHU216HW,2013-03-27 09:20:00,
2013-03-27 02:25:00,30.4,14.4,30.02,South,180,3.1,4.7,51,0.00,,,0.00,WUHU216HW,2013-03-27 09:25:00,
2013-03-27 02:30:00,30.2,14.7,30.02,SSE,158,1.8,4.3,52,0.00,,,0.00,WUHU216HW,2013-03-27 09:30:00,
2013-03-27 02:35:00,30.2,14.7,30.02,South,180,2.7,4.0,52,0.00,,,0.00,WUHU216HW,2013-03-27 09:35:00,
2013-03-27 02:40:00,30.2,14.7,30.02,SSE,158,3.6,5.4,52,0.00,,,0.00,WUHU216HW,2013-03-27 09:40:00,
2013-03-27 02:45:00,30.2,14.7,30.02,South,180,1.8,5.4,52,0.00,,,0.00,WUHU216HW,2013-03-27 09:45:00,
2013-03-27 02:50:00,30.1,14.5,30.02,SSE,158,3.4,4.5,52,0.00,,,0.00,WUHU216HW,2013-03-27 09:50:00,
2013-03-27 02:55:00,29.9,14.4,30.01,SE,135,2.7,4.5,52,0.00,,,0.00,WUHU216HW,2013-03-27 09:55:00,
2013-03-27 03:00:00,29.7,14.2,30.01,SSE,158,2.5,4.5,52,0.00,,,0.00,WUHU216HW,2013-03-27 10:00:00,
2013-03-27 03:05:00,29.7,14.2,30.02,SE,135,2.7,4.3,52,0.00,,,0.00,WUHU216HW,2013-03-27 10:05:00,
2013-03-27 03:10:00,29.7,14.2,30.02,SSE,158,2.2,3.4,52,0.00,,,0.00,WUHU216HW,2013-03-27 10:10:00,
2013-03-27 03:15:00,29.7,14.2,30.01,SE,135,3.6,3.8,52,0.00,,,0.00,WUHU216HW,2013-03-27 10:15:00,
2013-03-27 03:20:00,29.5,14.0,30.01,SSE,158,1.1,3.8,52,0.00,,,0.00,WUHU216HW,2013-03-27 10:20:00,
2013-03-27 03:25:00,29.3,13.9,30.01,SSE,158,2.5,3.6,52,0.00,,,0.00,WUHU216HW,2013-03-27 10:25:00,
2013-03-27 03:30:00,29.3,14.3,30.01,SSE,158,2.2,3.4,53,0.00,,,0.00,WUHU216HW,2013-03-27 10:30:00,
2013-03-27 03:35:00,29.2,14.1,30.01,South,180,1.8,3.4,53,0.00,,,0.00,WUHU216HW,2013-03-27 10:35:00,
2013-03-27 03:40:00,29.2,14.6,30.02,SSE,158,1.8,2.9,54,0.00,,,0.00,WUHU216HW,2013-03-27 10:40:00,
2013-03-27 03:45:00,29.0,14.0,30.01,ESE,113,1.1,2.7,53,0.00,,,0.00,WUHU216HW,2013-03-27 10:45:00,
2013-03-27 03:50:00,28.8,14.2,30.01,ESE,113,1.8,3.1,54,0.00,,,0.00,WUHU216HW,2013-03-27 10:50:00,
2013-03-27 03:55:00,28.4,13.9,30.02,ESE,113,1.6,3.1,54,0.00,,,0.00,WUHU216HW,2013-03-27 10:55:00,
2013-03-27 04:00:00,28.3,14.1,30.02,SE,135,3.6,3.6,55,0.00,,,0.00,WUHU216HW,2013-03-27 11:00:00,
2013-03-27 04:05:00,27.9,14.2,30.02,SE,135,3.4,4.7,56,0.00,,,0.00,WUHU216HW,2013-03-27 11:05:00,
2013-03-27 04:10:00,27.7,14.1,30.02,SE,135,2.7,4.7,56,0.00,,,0.00,WUHU216HW,2013-03-27 11:10:00,
2013-03-27 04:15:00,27.7,14.1,30.02,SE,135,3.4,4.7,56,0.00,,,0.00,WUHU216HW,2013-03-27 11:15:00,
2013-03-27 04:20:00,27.5,13.9,30.02,SSE,158,1.8,5.1,56,0.00,,,0.00,WUHU216HW,2013-03-27 11:20:00,
2013-03-27 04:25:00,27.5,13.9,30.02,SSE,158,2.5,5.1,56,0.00,,,0.00,WUHU216HW,2013-03-27 11:25:00,
2013-03-27 04:30:00,27.4,14.0,30.02,SSE,158,2.7,3.4,57,0.00,,,0.00,WUHU216HW,2013-03-27 11:30:00,
2013-03-27 04:35:00,27.2,13.9,30.02,SE,135,4.0,4.7,57,0.00,,,0.00,WUHU216HW,2013-03-27 11:35:00,
2013-03-27 04:40:00,27.2,13.9,30.02,SE,135,2.2,4.7,57,0.00,,,0.00,WUHU216HW,2013-03-27 11:40:00,
2013-03-27 04:45:00,27.0,13.7,30.03,SSE,158,0.9,4.0,57,0.00,,,0.00,WUHU216HW,2013-03-27 11:45:00,
2013-03-27 04:50:00,27.0,13.7,30.02,SSE,158,1.1,3.6,57,0.00,,,0.00,WUHU216HW,2013-03-27 11:50:00,
2013-03-27 04:55:00,27.0,13.7,30.03,SSE,158,0.0,1.3,57,0.00,,,0.00,WUHU216HW,2013-03-27 11:55:00,
2013-03-27 05:00:00,26.8,13.5,30.03,SE,135,1.1,1.3,57,0.00,,,0.00,WUHU216HW,2013-03-27 12:00:00,
2013-03-27 05:05:00,26.6,13.3,30.03,SSE,158,0.0,1.8,57,0.00,,,0.00,WUHU216HW,2013-03-27 12:05:00,
2013-03-27 05:10:00,26.6,13.3,30.03,SSE,158,0.9,1.8,57,0.00,,,0.00,WUHU216HW,2013-03-27 12:10:00,
2013-03-27 05:15:00,26.5,13.1,30.03,SSE,158,0.0,1.3,57,0.00,,,0.00,WUHU216HW,2013-03-27 12:15:00,
2013-03-27 05:20:00,26.3,13.1,30.03,SSE,158,0.0,0.9,57,0.00,,,0.00,WUHU216HW,2013-03-27 12:20:00,
2013-03-27 05:25:00,26.1,12.9,30.03,SSW,203,0.0,0.0,57,0.00,,,0.00,WUHU216HW,2013-03-27 12:25:00,
2013-03-27 05:30:00,25.9,13.2,30.03,SSE,158,1.1,1.1,58,0.00,,,0.00,WUHU216HW,2013-03-27 12:30:00,
2013-03-27 05:35:00,25.9,13.2,30.03,South,180,0.9,1.3,58,0.00,,,0.00,WUHU216HW,2013-03-27 12:35:00,
2013-03-27 05:40:00,25.7,13.0,30.03,South,180,0.0,1.3,58,0.00,,,0.00,WUHU216HW,2013-03-27 12:40:00,
2013-03-27 05:45:00,25.7,13.0,30.04,SSE,158,0.0,0.7,58,0.00,,,0.00,WUHU216HW,2013-03-27 12:45:00,
2013-03-27 05:50:00,25.6,12.8,30.04,SSE,158,0.0,0.0,58,0.00,,,0.00,WUHU216HW,2013-03-27 12:50:00,
2013-03-27 05:55:00,25.6,12.8,30.04,South,180,1.1,1.3,58,0.00,,,0.00,WUHU216HW,2013-03-27 12:55:00,
2013-03-27 06:00:00,25.4,13.1,30.04,South,180,1.1,1.8,59,0.00,,,0.00,WUHU216HW,2013-03-27 13:00:00,
2013-03-27 06:05:00,25.4,13.1,30.04,SSE,158,0.9,1.8,59,0.00,,,0.00,WUHU216HW,2013-03-27 13:05:00,
2013-03-27 06:10:00,25.2,12.9,30.04,South,180,0.0,1.1,59,0.00,,,0.00,WUHU216HW,2013-03-27 13:10:00,
2013-03-27 06:15:00,25.2,12.9,30.04,SSE,158,0.7,0.9,59,0.00,,,0.00,WUHU216HW,2013-03-27 13:15:00,
2013-03-27 06:20:00,25.2,12.9,30.05,SSE,158,1.1,1.1,59,0.00,,,0.00,WUHU216HW,2013-03-27 13:20:00,
2013-03-27 06:25:00,25.2,12.9,30.05,South,180,0.0,1.1,59,0.00,,,0.00,WUHU216HW,2013-03-27 13:25:00,
2013-03-27 06:30:00,25.2,12.9,30.05,SSE,158,0.4,1.1,59,0.00,,,0.00,WUHU216HW,2013-03-27 13:30:00,
2013-03-27 06:35:00,25.2,12.9,30.05,SSE,158,0.0,1.1,59,0.00,,,0.00,WUHU216HW,2013-03-27 13:35:00,
2013-03-27 06:40:00,25.4,13.1,30.05,SSE,158,1.1,1.1,59,0.00,,,0.00,WUHU216HW,2013-03-27 13:40:00,
2013-03-27 06:45:00,25.4,13.1,30.05,SSE,158,1.1,1.1,59,0.00,,,0.00,WUHU216HW,2013-03-27 13:45:00,
2013-03-27 06:50:00,25.6,13.6,30.05,SSE,158,0.4,1.1,60,0.00,,,0.00,WUHU216HW,2013-03-27 13:50:00,
2013-03-27 06:55:00,25.7,13.8,30.06,SSE,158,0.9,1.6,60,0.00,,,0.00,WUHU216HW,2013-03-27 13:55:00,
2013-03-27 07:00:00,25.9,14.0,30.06,SSE,158,1.1,1.6,60,0.00,,,0.00,WUHU216HW,2013-03-27 14:00:00,
2013-03-27 07:05:00,26.1,14.1,30.06,SE,135,0.0,1.1,60,0.00,,,0.00,WUHU216HW,2013-03-27 14:05:00,
2013-03-27 07:10:00,26.3,14.6,30.06,SE,135,0.0,1.1,61,0.00,,,0.00,WUHU216HW,2013-03-27 14:10:00,
2013-03-27 07:15:00,26.5,15.1,30.06,SE,135,0.0,0.0,62,0.00,,,0.00,WUHU216HW,2013-03-27 14:15:00,
2013-03-27 07:20:00,26.6,15.3,30.06,SE,135,0.0,0.0,62,0.00,,,0.00,WUHU216HW,2013-03-27 14:20:00,
2013-03-27 07:25:00,26.8,15.5,30.06,SE,135,0.0,0.0,62,0.00,,,0.00,WUHU216HW,2013-03-27 14:25:00,
2013-03-27 07:30:00,27.2,15.8,30.06,SE,135,0.0,0.0,62,0.00,,,0.00,WUHU216HW,2013-03-27 14:30:00,
2013-03-27 07:35:00,27.5,16.2,30.06,SE,135,0.0,0.0,62,0.00,,,0.00,WUHU216HW,2013-03-27 14:35:00,
2013-03-27 07:40:00,27.9,16.6,30.07,SE,135,0.0,0.0,62,0.00,,,0.00,WUHU216HW,2013-03-27 14:40:00,
2013-03-27 07:45:00,28.4,17.1,30.07,SE,135,0.0,0.0,62,0.00,,,0.00,WUHU216HW,2013-03-27 14:45:00,
2013-03-27 07:50:00,29.2,17.7,30.07,SE,135,0.0,0.0,62,0.00,,,0.00,WUHU216HW,2013-03-27 14:50:00,
2013-03-27 07:55:00,29.7,18.6,30.07,SE,135,0.0,0.0,63,0.00,,,0.00,WUHU216HW,2013-03-27 14:55:00,
2013-03-27 08:00:00,30.6,19.8,30.07,ESE,113,0.0,0.0,64,0.00,,,0.00,WUHU216HW,2013-03-27 15:00:00,
2013-03-27 08:05:00,31.7,20.5,30.07,ESE,113,0.0,0.0,63,0.00,,,0.00,WUHU216HW,2013-03-27 15:05:00,
2013-03-27 08:10:00,32.9,21.3,30.07,ESE,113,0.7,1.1,62,0.00,,,0.00,WUHU216HW,2013-03-27 15:10:00,
2013-03-27 08:15:00,34.2,22.1,30.07,East,90,0.0,1.1,61,0.00,,,0.00,WUHU216HW,2013-03-27 15:15:00,
2013-03-27 08:20:00,35.6,23.2,30.07,NNE,23,0.9,1.1,60,0.00,,,0.00,WUHU216HW,2013-03-27 15:20:00,
2013-03-27 08:25:00,37.3,24.2,30.07,NNE,23,0.9,1.1,59,0.00,,,0.00,WUHU216HW,2013-03-27 15:25:00,
2013-03-27 08:30:00,39.1,24.6,30.07,NNE,23,1.1,1.1,56,0.00,,,0.00,WUHU216HW,2013-03-27 15:30:00,
2013-03-27 08:35:00,40.7,25.2,30.07,North,0,0.9,1.3,54,0.00,,,0.00,WUHU216HW,2013-03-27 15:35:00,
2013-03-27 08:40:00,42.1,25.3,30.07,NNW,338,2.5,2.5,51,0.00,,,0.00,WUHU216HW,2013-03-27 15:40:00,
2013-03-27 08:45:00,43.4,25.5,30.07,NNW,338,2.5,2.9,49,0.00,,,0.00,WUHU216HW,2013-03-27 15:45:00,
2013-03-27 08:50:00,44.8,24.1,30.07,WSW,248,4.7,4.7,44,0.00,,,0.00,WUHU216HW,2013-03-27 15:50:00,
2013-03-27 08:55:00,46.1,24.7,30.08,SSW,203,2.2,4.7,43,0.00,,,0.00,WUHU216HW,2013-03-27 15:55:00,
2013-03-27 09:00:00,46.6,24.1,30.08,West,270,4.0,4.7,41,0.00,,,0.00,WUHU216HW,2013-03-27 16:00:00,
2013-03-27 09:05:00,47.2,24.0,30.08,SSW,203,2.0,4.7,40,0.00,,,0.00,WUHU216HW,2013-03-27 16:05:00,
2013-03-27 09:10:00,47.3,23.6,30.08,WSW,248,3.4,4.7,39,0.00,,,0.00,WUHU216HW,2013-03-27 16:10:00,
2013-03-27 09:15:00,48.1,24.2,30.08,SW,225,3.6,4.9,39,0.00,,,0.00,WUHU216HW,2013-03-27 16:15:00,
2013-03-27 09:20:00,48.8,24.1,30.08,SW,225,4.3,4.9,38,0.00,,,0.00,WUHU216HW,2013-03-27 16:20:00,
2013-03-27 09:25:00,49.7,24.9,30.08,South,180,3.8,8.5,38,0.00,,,0.00,WUHU216HW,2013-03-27 16:25:00,
2013-03-27 09:30:00,50.8,25.2,30.08,SSW,203,5.6,8.5,37,0.00,,,0.00,WUHU216HW,2013-03-27 16:30:00,
2013-03-27 09:35:00,52.2,26.6,30.08,SW,225,1.8,7.6,37,0.00,,,0.00,WUHU216HW,2013-03-27 16:35:00,
2013-03-27 09:40:00,53.5,27.0,30.08,WSW,248,2.0,7.6,36,0.00,,,0.00,WUHU216HW,2013-03-27 16:40:00,
2013-03-27 09:45:00,54.5,25.1,30.08,West,270,2.9,10.5,32,0.00,,,0.00,WUHU216HW,2013-03-27 16:45:00,
2013-03-27 09:50:00,55.4,25.2,30.08,WNW,293,4.3,10.5,31,0.00,,,0.00,WUHU216HW,2013-03-27 16:50:00,
2013-03-27 09:55:00,56.0,25.7,30.08,SSE,158,3.4,6.9,31,0.00,,,0.00,WUHU216HW,2013-03-27 16:55:00,
2013-03-27 10:00:00,56.5,25.5,30.08,SW,225,2.2,6.9,30,0.00,,,0.00,WUHU216HW,2013-03-27 17:00:00,
2013-03-27 10:05:00,57.2,26.1,30.08,SSE,158,4.0,10.5,30,0.00,,,0.00,WUHU216HW,2013-03-27 17:05:00,
2013-03-27 10:10:00,57.8,24.7,30.08,NNW,338,2.5,10.5,28,0.00,,,0.00,WUHU216HW,2013-03-27 17:10:00,
2013-03-27 10:15:00,58.5,26.3,30.08,West,270,1.8,9.4,29,0.00,,,0.00,WUHU216HW,2013-03-27 17:15:00,
2013-03-27 10:20:00,58.7,25.5,30.08,SW,225,10.7,10.7,28,0.00,,,0.00,WUHU216HW,2013-03-27 17:20:00,
2013-03-27 10:25:00,59.0,25.7,30.08,WSW,248,5.4,10.7,28,0.00,,,0.00,WUHU216HW,2013-03-27 17:25:00,
2013-03-27 10:30:00,59.4,25.1,30.08,WSW,248,2.2,11.0,27,0.00,,,0.00,WUHU216HW,2013-03-27 17:30:00,
2013-03-27 10:35:00,59.4,25.1,30.08,SW,225,4.7,14.5,27,0.00,,,0.00,WUHU216HW,2013-03-27 17:35:00,
2013-03-27 10:40:00,59.9,23.7,30.08,WSW,248,8.1,18.6,25,0.00,,,0.00,WUHU216HW,2013-03-27 17:40:00,
2013-03-27 10:45:00,59.9,23.7,30.08,SSW,203,2.5,18.6,25,0.00,,,0.00,WUHU216HW,2013-03-27 17:45:00,
2013-03-27 10:50:00,60.3,24.0,30.08,SW,225,7.6,12.1,25,0.00,,,0.00,WUHU216HW,2013-03-27 17:50:00,
2013-03-27 10:55:00,60.8,23.4,30.08,WSW,248,5.8,12.1,24,0.00,,,0.00,WUHU216HW,2013-03-27 17:55:00,
2013-03-27 11:00:00,61.4,23.9,30.08,SW,225,8.3,11.4,24,0.00,,,0.00,WUHU216HW,2013-03-27 18:00:00,
2013-03-27 11:05:00,61.6,22.2,30.08,WNW,293,5.6,11.4,22,0.00,,,0.00,WUHU216HW,2013-03-27 18:05:00,
2013-03-27 11:10:00,61.4,23.0,30.08,WSW,248,4.9,11.4,23,0.00,,,0.00,WUHU216HW,2013-03-27 18:10:00,
2013-03-27 11:15:00,61.6,23.0,30.08,WNW,293,7.8,13.4,23,0.00,,,0.00,WUHU216HW,2013-03-27 18:15:00,
2013-03-27 11:20:00,61.2,21.8,30.08,WSW,248,6.9,13.6,22,0.00,,,0.00,WUHU216HW,2013-03-27 18:20:00,
2013-03-27 11:25:00,61.6,23.0,30.08,SSW,203,10.5,13.6,23,0.00,,,0.00,WUHU216HW,2013-03-27 18:25:00,
2013-03-27 11:30:00,61.9,23.4,30.08,SW,225,9.8,13.4,23,0.00,,,0.00,WUHU216HW,2013-03-27 18:30:00,
2013-03-27 11:35:00,61.6,22.2,30.08,SW,225,12.5,14.3,22,0.00,,,0.00,WUHU216HW,2013-03-27 18:35:00,
2013-03-27 11:40:00,61.6,21.2,30.08,West,270,6.9,14.3,21,0.00,,,0.00,WUHU216HW,2013-03-27 18:40:00,
2013-03-27 11:45:00,61.6,22.2,30.08,NNW,338,7.6,12.5,22,0.00,,,0.00,WUHU216HW,2013-03-27 18:45:00,
2013-03-27 11:50:00,62.3,23.7,30.07,SSW,203,8.3,9.6,23,0.00,,,0.00,WUHU216HW,2013-03-27 18:50:00,
2013-03-27 11:55:00,62.8,23.1,30.07,WNW,293,6.3,14.3,22,0.00,,,0.00,WUHU216HW,2013-03-27 18:55:00,
2013-03-27 12:00:00,63.0,23.3,30.07,SE,135,6.0,14.3,22,0.00,,,0.00,WUHU216HW,2013-03-27 19:00:00,
2013-03-27 12:05:00,63.5,22.8,30.07,West,270,8.9,12.8,21,0.00,,,0.00,WUHU216HW,2013-03-27 19:05:00,
2013-03-27 12:10:00,63.5,23.8,30.07,WSW,248,4.0,17.2,22,0.00,,,0.00,WUHU216HW,2013-03-27 19:10:00,
2013-03-27 12:15:00,64.1,24.2,30.07,West,270,4.7,17.2,22,0.00,,,0.00,WUHU216HW,2013-03-27 19:15:00,
2013-03-27 12:20:00,64.8,24.8,30.07,WNW,293,12.1,12.1,22,0.00,,,0.00,WUHU216HW,2013-03-27 19:20:00,
2013-03-27 12:25:00,64.8,23.8,30.07,South,180,7.6,12.1,21,0.00,,,0.00,WUHU216HW,2013-03-27 19:25:00,
2013-03-27 12:30:00,65.3,24.2,30.07,South,180,9.6,12.1,21,0.00,,,0.00,WUHU216HW,2013-03-27 19:30:00,
2013-03-27 12:35:00,65.7,24.5,30.07,South,180,6.9,9.6,21,0.00,,,0.00,WUHU216HW,2013-03-27 19:35:00,
2013-03-27 12:40:00,65.9,22.1,30.07,West,270,5.6,15.7,19,0.00,,,0.00,WUHU216HW,2013-03-27 19:40:00,
2013-03-27 12:45:00,65.2,21.5,30.07,SSW,203,7.2,15.7,19,0.00,,,0.00,WUHU216HW,2013-03-27 19:45:00,
2013-03-27 12:50:00,65.0,19.8,30.07,West,270,11.4,14.3,18,0.00,,,0.00,WUHU216HW,2013-03-27 19:50:00,
2013-03-27 12:56:00,64.8,21.3,30.06,SSW,203,10.3,14.3,19,0.00,,,0.00,WUHU216HW,2013-03-27 19:56:00,
2013-03-27 13:01:00,65.2,21.5,30.06,SW,225,2.0,14.3,19,0.00,,,0.00,WUHU216HW,2013-03-27 20:01:00,
2013-03-27 13:06:00,65.9,24.7,30.06,South,180,7.6,12.8,21,0.00,,,0.00,WUHU216HW,2013-03-27 20:06:00,
2013-03-27 13:11:00,66.1,20.6,30.06,West,270,12.5,12.8,18,0.00,,,0.00,WUHU216HW,2013-03-27 20:11:00,
2013-03-27 13:16:00,65.5,20.2,30.06,WNW,293,6.5,13.4,18,0.00,,,0.00,WUHU216HW,2013-03-27 20:16:00,
2013-03-27 13:21:00,65.5,21.8,30.06,SSW,203,7.8,13.4,19,0.00,,,0.00,WUHU216HW,2013-03-27 20:21:00,
2013-03-27 13:26:00,65.5,21.8,30.06,SSE,158,6.3,13.4,19,0.00,,,0.00,WUHU216HW,2013-03-27 20:26:00,
2013-03-27 13:31:00,65.5,21.8,30.06,SSW,203,11.4,13.0,19,0.00,,,0.00,WUHU216HW,2013-03-27 20:31:00,
2013-03-27 13:36:00,65.5,20.2,30.06,SW,225,9.8,14.5,18,0.00,,,0.00,WUHU216HW,2013-03-27 20:36:00,
2013-03-27 13:41:00,65.2,21.5,30.06,WSW,248,8.7,14.5,19,0.00,,,0.00,WUHU216HW,2013-03-27 20:41:00,
2013-03-27 13:46:00,65.2,21.5,30.06,SSE,158,4.3,12.1,19,0.00,,,0.00,WUHU216HW,2013-03-27 20:46:00,
2013-03-27 13:51:00,65.5,21.8,30.06,SSW,203,9.2,11.6,19,0.00,,,0.00,WUHU216HW,2013-03-27 20:51:00,
2013-03-27 13:56:00,65.9,22.1,30.05,SSW,203,9.2,11.4,19,0.00,,,0.00,WUHU216HW,2013-03-27 20:56:00,
2013-03-27 14:01:00,66.4,22.5,30.05,SSW,203,5.8,14.8,19,0.00,,,0.00,WUHU216HW,2013-03-27 21:01:00,
2013-03-27 14:06:00,66.6,22.7,30.05,SSE,158,1.6,14.8,19,0.00,,,0.00,WUHU216HW,2013-03-27 21:06:00,
2013-03-27 14:11:00,66.4,22.5,30.05,ESE,113,2.2,12.3,19,0.00,,,0.00,WUHU216HW,2013-03-27 21:11:00,
2013-03-27 14:16:00,66.1,22.2,30.05,SSW,203,12.1,14.3,19,0.00,,,0.00,WUHU216HW,2013-03-27 21:16:00,
2013-03-27 14:21:00,66.1,22.2,30.05,SSW,203,5.6,17.9,19,0.00,,,0.00,WUHU216HW,2013-03-27 21:21:00,
2013-03-27 14:26:00,65.9,22.1,30.05,South,180,7.4,17.9,19,0.00,,,0.00,WUHU216HW,2013-03-27 21:26:00,
2013-03-27 14:31:00,65.5,21.8,30.05,SSE,158,7.6,15.7,19,0.00,,,0.00,WUHU216HW,2013-03-27 21:31:00,
2013-03-27 14:36:00,65.2,21.5,30.05,SSE,158,6.9,15.4,19,0.00,,,0.00,WUHU216HW,2013-03-27 21:36:00,
2013-03-27 14:41:00,65.2,21.5,30.05,WSW,248,10.3,12.8,19,0.00,,,0.00,WUHU216HW,2013-03-27 21:41:00,
2013-03-27 14:46:00,65.2,21.5,30.05,SSE,158,11.6,12.8,19,0.00,,,0.00,WUHU216HW,2013-03-27 21:46:00,
2013-03-27 14:51:00,64.8,21.3,30.05,South,180,11.4,12.3,19,0.00,,,0.00,WUHU216HW,2013-03-27 21:51:00,
2013-03-27 14:56:00,64.6,22.7,30.05,SW,225,6.9,12.1,20,0.00,,,0.00,WUHU216HW,2013-03-27 21:56:00,
2013-03-27 15:01:00,64.4,22.5,30.05,SE,135,12.5,15.0,20,0.00,,,0.00,WUHU216HW,2013-03-27 22:01:00,
2013-03-27 15:06:00,64.3,23.3,30.05,SW,225,9.2,15.0,21,0.00,,,0.00,WUHU216HW,2013-03-27 22:06:00,
2013-03-27 15:11:00,64.3,22.3,30.05,SW,225,7.2,12.5,20,0.00,,,0.00,WUHU216HW,2013-03-27 22:11:00,
2013-03-27 15:16:00,63.7,23.0,30.05,West,270,7.6,12.1,21,0.00,,,0.00,WUHU216HW,2013-03-27 22:16:00,
2013-03-27 15:21:00,63.5,22.8,30.05,WSW,248,4.0,12.1,21,0.00,,,0.00,WUHU216HW,2013-03-27 22:21:00,
2013-03-27 15:26:00,63.4,22.6,30.05,WSW,248,4.7,11.9,21,0.00,,,0.00,WUHU216HW,2013-03-27 22:26:00,
2013-03-27 15:31:00,63.2,22.5,30.05,South,180,5.4,11.9,21,0.00,,,0.00,WUHU216HW,2013-03-27 22:31:00,
2013-03-27 15:36:00,63.0,22.3,30.05,SW,225,6.5,13.2,21,0.00,,,0.00,WUHU216HW,2013-03-27 22:36:00,
2013-03-27 15:41:00,63.0,22.3,30.05,SW,225,7.2,13.2,21,0.00,,,0.00,WUHU216HW,2013-03-27 22:41:00,
2013-03-27 15:46:00,62.5,21.9,30.05,WSW,248,11.4,17.9,21,0.00,,,0.00,WUHU216HW,2013-03-27 22:46:00,
2013-03-27 15:50:00,62.5,21.9,30.05,SW,225,9.6,17.9,21,0.00,,,0.00,WUHU216HW,2013-03-27 22:50:00,
2013-03-27 15:55:00,62.5,21.9,30.05,WSW,248,8.5,11.4,21,0.00,,,0.00,WUHU216HW,2013-03-27 22:55:00,
2013-03-27 16:00:00,62.5,21.9,30.05,SSE,158,4.9,12.3,21,0.00,,,0.00,WUHU216HW,2013-03-27 23:00:00,
2013-03-27 16:05:00,62.6,22.1,30.05,South,180,5.8,13.9,21,0.00,,,0.00,WUHU216HW,2013-03-27 23:05:00,
2013-03-27 16:10:00,62.3,21.8,30.05,North,0,6.7,13.9,21,0.00,,,0.00,WUHU216HW,2013-03-27 23:10:00,
2013-03-27 16:15:00,61.6,21.2,30.05,WSW,248,6.5,13.2,21,0.00,,,0.00,WUHU216HW,2013-03-27 23:15:00,
2013-03-27 16:20:00,61.7,21.3,30.05,SW,225,2.5,12.1,21,0.00,,,0.00,WUHU216HW,2013-03-27 23:20:00,
2013-03-27 16:25:00,62.1,22.6,30.05,WSW,248,6.0,12.1,22,0.00,,,0.00,WUHU216HW,2013-03-27 23:25:00,
2013-03-27 16:30:00,61.9,21.4,30.05,West,270,8.5,15.0,21,0.00,,,0.00,WUHU216HW,2013-03-27 23:30:00,
2013-03-27 16:35:00,61.4,21.0,30.05,SE,135,12.8,15.0,21,0.00,,,0.00,WUHU216HW,2013-03-27 23:35:00,
2013-03-27 16:40:00,60.8,20.6,30.05,WSW,248,6.3,14.3,21,0.00,,,0.00,WUHU216HW,2013-03-27 23:40:00,
2013-03-27 16:45:00,60.8,20.6,30.05,South,180,8.5,14.3,21,0.00,,,0.00,WUHU216HW,2013-03-27 23:45:00,
2013-03-27 16:50:00,60.8,20.6,30.05,West,270,10.7,13.4,21,0.00,,,0.00,WUHU216HW,2013-03-27 23:50:00,
2013-03-27 16:55:00,60.3,20.1,30.05,West,270,2.2,13.4,21,0.00,,,0.00,WUHU216HW,2013-03-27 23:55:00,
2013-03-27 17:00:00,59.8,19.6,30.05,West,270,8.1,11.4,21,0.00,,,0.00,WUHU216HW,2013-03-28 00:00:00,
2013-03-27 17:05:00,59.4,19.3,30.05,West,270,4.3,11.4,21,0.00,,,0.00,WUHU216HW,2013-03-28 00:05:00,
2013-03-27 17:10:00,59.4,19.3,30.05,SSW,203,4.7,11.4,21,0.00,,,0.00,WUHU216HW,2013-03-28 00:10:00,
2013-03-27 17:15:00,59.4,20.3,30.06,South,180,10.5,12.1,22,0.00,,,0.00,WUHU216HW,2013-03-28 00:15:00,
2013-03-27 17:20:00,59.2,20.1,30.06,SSE,158,9.8,12.1,22,0.00,,,0.00,WUHU216HW,2013-03-28 00:20:00,
2013-03-27 17:25:00,59.0,20.0,30.06,SW,225,5.6,12.1,22,0.00,,,0.00,WUHU216HW,2013-03-28 00:25:00,
2013-03-27 17:30:00,59.0,20.0,30.06,South,180,5.6,11.0,22,0.00,,,0.00,WUHU216HW,2013-03-28 00:30:00,
2013-03-27 17:36:00,59.0,20.0,30.06,SW,225,6.9,14.1,22,0.00,,,0.00,WUHU216HW,2013-03-28 00:36:00,
2013-03-27 17:41:00,58.7,19.6,30.06,WSW,248,4.0,14.1,22,0.00,,,0.00,WUHU216HW,2013-03-28 00:41:00,
2013-03-27 17:46:00,58.5,19.5,30.06,SSW,203,8.5,12.8,22,0.00,,,0.00,WUHU216HW,2013-03-28 00:46:00,
2013-03-27 17:51:00,58.1,19.2,30.06,SSW,203,5.4,12.8,22,0.00,,,0.00,WUHU216HW,2013-03-28 00:51:00,
2013-03-27 17:55:00,57.6,18.7,30.06,SE,135,8.5,12.5,22,0.00,,,0.00,WUHU216HW,2013-03-28 00:55:00,
2013-03-27 18:01:00,57.1,18.4,30.06,SW,225,5.1,12.5,22,0.00,,,0.00,WUHU216HW,2013-03-28 01:01:00,
2013-03-27 18:06:00,56.5,18.8,30.06,South,180,5.8,11.4,23,0.00,,,0.00,WUHU216HW,2013-03-28 01:06:00,
2013-03-27 18:11:00,56.3,18.7,30.06,WNW,293,4.7,13.4,23,0.00,,,0.00,WUHU216HW,2013-03-28 01:11:00,
2013-03-27 18:16:00,56.0,18.4,30.06,South,180,3.4,13.4,23,0.00,,,0.00,WUHU216HW,2013-03-28 01:16:00,
2013-03-27 18:20:00,55.8,18.3,30.06,South,180,3.4,8.1,23,0.00,,,0.00,WUHU216HW,2013-03-28 01:20:00,
2013-03-27 18:25:00,55.4,18.9,30.06,South,180,1.1,6.5,24,0.00,,,0.00,WUHU216HW,2013-03-28 01:25:00,
2013-03-27 18:31:00,55.3,18.7,30.06,South,180,4.3,5.6,24,0.00,,,0.00,WUHU216HW,2013-03-28 01:31:00,
2013-03-27 18:36:00,54.7,18.3,30.06,West,270,2.5,5.6,24,0.00,,,0.00,WUHU216HW,2013-03-28 01:36:00,
2013-03-27 18:41:00,54.4,18.9,30.06,SW,225,2.7,5.6,25,0.00,,,0.00,WUHU216HW,2013-03-28 01:41:00,
2013-03-27 18:46:00,53.8,18.5,30.07,SW,225,3.6,5.4,25,0.00,,,0.00,WUHU216HW,2013-03-28 01:46:00,
2013-03-27 18:51:00,53.5,18.1,30.07,SSW,203,1.8,6.3,25,0.00,,,0.00,WUHU216HW,2013-03-28 01:51:00,
2013-03-27 18:56:00,53.3,18.0,30.07,SW,225,2.5,6.3,25,0.00,,,0.00,WUHU216HW,2013-03-28 01:56:00,
2013-03-27 19:01:00,52.9,19.5,30.07,WSW,248,1.3,4.5,27,0.00,,,0.00,WUHU216HW,2013-03-28 02:01:00,
2013-03-27 19:06:00,52.6,19.3,30.07,WSW,248,1.3,4.5,27,0.00,,,0.00,WUHU216HW,2013-03-28 02:06:00,
2013-03-27 19:10:00,52.2,18.9,30.07,WSW,248,0.2,2.9,27,0.00,,,0.00,WUHU216HW,2013-03-28 02:10:00,
2013-03-27 19:15:00,52.0,18.8,30.07,SW,225,0.9,2.2,27,0.00,,,0.00,WUHU216HW,2013-03-28 02:15:00,
2013-03-27 19:21:00,51.8,19.5,30.07,SW,225,0.4,1.6,28,0.00,,,0.00,WUHU216HW,2013-03-28 02:21:00,
2013-03-27 19:25:00,51.7,19.4,30.07,WSW,248,0.9,2.2,28,0.00,,,0.00,WUHU216HW,2013-03-28 02:25:00,
2013-03-27 19:31:00,51.3,19.1,30.07,SW,225,1.1,2.5,28,0.00,,,0.00,WUHU216HW,2013-03-28 02:31:00,
2013-03-27 19:36:00,50.8,19.5,30.07,West,270,1.8,2.5,29,0.00,,,0.00,WUHU216HW,2013-03-28 02:36:00,
2013-03-27 19:41:00,50.4,19.2,30.07,SW,225,1.1,2.5,29,0.00,,,0.00,WUHU216HW,2013-03-28 02:41:00,
2013-03-27 19:46:00,50.0,18.9,30.07,WSW,248,1.8,2.5,29,0.00,,,0.00,WUHU216HW,2013-03-28 02:46:00,
2013-03-27 19:51:00,49.7,18.6,30.07,WSW,248,1.8,3.4,29,0.00,,,0.00,WUHU216HW,2013-03-28 02:51:00,
2013-03-27 19:56:00,49.3,18.3,30.07,West,270,1.3,3.8,29,0.00,,,0.00,WUHU216HW,2013-03-28 02:56:00,
2013-03-27 20:01:00,49.3,18.3,30.08,WSW,248,3.6,3.8,29,0.00,,,0.00,WUHU216HW,2013-03-28 03:01:00,
2013-03-27 20:06:00,49.0,18.9,30.08,WSW,248,2.5,3.6,30,0.00,,,0.00,WUHU216HW,2013-03-28 03:06:00,
2013-03-27 20:11:00,48.8,18.8,30.08,SW,225,1.1,3.6,30,0.00,,,0.00,WUHU216HW,2013-03-28 03:11:00,
2013-03-27 20:16:00,48.4,18.6,30.08,SW,225,1.6,3.6,30,0.00,,,0.00,WUHU216HW,2013-03-28 03:16:00,
2013-03-27 20:21:00,48.2,19.0,30.08,SW,225,0.4,3.1,31,0.00,,,0.00,WUHU216HW,2013-03-28 03:21:00,
2013-03-27 20:26:00,47.9,18.7,30.08,SSW,203,1.8,2.7,31,0.00,,,0.00,WUHU216HW,2013-03-28 03:26:00,
2013-03-27 20:31:00,47.3,18.9,30.08,SW,225,0.7,2.7,32,0.00,,,0.00,WUHU216HW,2013-03-28 03:31:00,
2013-03-27 20:36:00,46.8,18.4,30.08,SSW,203,0.7,2.0,32,0.00,,,0.00,WUHU216HW,2013-03-28 03:36:00,
2013-03-27 20:41:00,46.3,18.5,30.08,SW,225,1.6,3.4,33,0.00,,,0.00,WUHU216HW,2013-03-28 03:41:00,
2013-03-27 20:46:00,45.9,18.3,30.08,WSW,248,1.6,3.4,33,0.00,,,0.00,WUHU216HW,2013-03-28 03:46:00,
2013-03-27 20:51:00,45.7,18.1,30.08,WSW,248,0.9,1.8,33,0.00,,,0.00,WUHU216HW,2013-03-28 03:51:00,
2013-03-27 20:56:00,45.4,17.7,30.09,West,270,0.9,1.8,33,0.00,,,0.00,WUHU216HW,2013-03-28 03:56:00,
2013-03-27 21:00:00,45.2,18.3,30.09,West,270,0.7,1.8,34,0.00,,,0.00,WUHU216HW,2013-03-28 04:00:00,
2013-03-27 21:05:00,45.0,17.5,30.09,SSW,203,1.1,1.8,33,0.00,,,0.00,WUHU216HW,2013-03-28 04:05:00,
2013-03-27 21:10:00,44.6,17.1,30.09,SW,225,1.1,1.1,33,0.00,,,0.00,WUHU216HW,2013-03-28 04:10:00,
2013-03-27 21:15:00,44.3,17.5,30.09,SSW,203,1.3,2.5,34,0.00,,,0.00,WUHU216HW,2013-03-28 04:15:00,
2013-03-27 21:20:00,43.9,17.8,30.09,SW,225,1.1,2.5,35,0.00,,,0.00,WUHU216HW,2013-03-28 04:20:00,
2013-03-27 21:25:00,43.6,17.5,30.09,WSW,248,2.9,2.9,35,0.00,,,0.00,WUHU216HW,2013-03-28 04:25:00,
2013-03-27 21:30:00,43.6,17.5,30.10,West,270,4.0,4.7,35,0.00,,,0.00,WUHU216HW,2013-03-28 04:30:00,
2013-03-27 21:35:00,43.4,17.3,30.10,SW,225,1.8,4.7,35,0.00,,,0.00,WUHU216HW,2013-03-28 04:35:00,
2013-03-27 21:40:00,43.4,17.3,30.10,WSW,248,2.2,3.4,35,0.00,,,0.00,WUHU216HW,2013-03-28 04:40:00,
2013-03-27 21:45:00,43.2,17.2,30.10,West,270,2.0,2.9,35,0.00,,,0.00,WUHU216HW,2013-03-28 04:45:00,
2013-03-27 21:50:00,43.0,17.0,30.10,West,270,3.1,4.0,35,0.00,,,0.00,WUHU216HW,2013-03-28 04:50:00,
2013-03-27 21:55:00,42.8,16.8,30.10,SSW,203,2.5,4.0,35,0.00,,,0.00,WUHU216HW,2013-03-28 04:55:00,
2013-03-27 22:00:00,42.8,16.8,30.10,WSW,248,2.0,3.8,35,0.00,,,0.00,WUHU216HW,2013-03-28 05:00:00,
2013-03-27 22:05:00,42.5,16.6,30.10,SW,225,2.7,5.4,35,0.00,,,0.00,WUHU216HW,2013-03-28 05:05:00,
2013-03-27 22:10:00,42.5,17.2,30.10,West,270,1.8,5.4,36,0.00,,,0.00,WUHU216HW,2013-03-28 05:10:00,
2013-03-27 22:15:00,42.1,16.9,30.10,West,270,2.5,4.7,36,0.00,,,0.00,WUHU216HW,2013-03-28 05:15:00,
2013-03-27 22:20:00,42.1,16.9,30.10,WSW,248,4.0,4.9,36,0.00,,,0.00,WUHU216HW,2013-03-28 05:20:00,
2013-03-27 22:25:00,41.9,16.8,30.10,SW,225,5.1,5.1,36,0.00,,,0.00,WUHU216HW,2013-03-28 05:25:00,
2013-03-27 22:30:00,41.8,16.6,30.10,West,270,3.1,5.1,36,0.00,,,0.00,WUHU216HW,2013-03-28 05:30:00,
2013-03-27 22:35:00,41.6,17.1,30.10,West,270,1.8,4.3,37,0.00,,,0.00,WUHU216HW,2013-03-28 05:35:00,
2013-03-27 22:40:00,41.4,16.9,30.10,SW,225,3.4,4.7,37,0.00,,,0.00,WUHU216HW,2013-03-28 05:40:00,
2013-03-27 22:45:00,41.2,16.7,30.10,West,270,4.3,4.7,37,0.00,,,0.00,WUHU216HW,2013-03-28 05:45:00,
2013-03-27 22:50:00,41.0,16.6,30.10,West,270,3.6,4.3,37,0.00,,,0.00,WUHU216HW,2013-03-28 05:50:00,
2013-03-27 22:55:00,40.9,16.5,30.10,SSW,203,1.8,4.3,37,0.00,,,0.00,WUHU216HW,2013-03-28 05:55:00,
2013-03-27 23:00:00,40.9,17.1,30.10,SSW,203,2.0,4.7,38,0.00,,,0.00,WUHU216HW,2013-03-28 06:00:00,
2013-03-27 23:05:00,40.7,16.9,30.10,SW,225,3.4,4.7,38,0.00,,,0.00,WUHU216HW,2013-03-28 06:05:00,
2013-03-27 23:10:00,40.3,16.6,30.10,SW,225,2.2,7.2,38,0.00,,,0.00,WUHU216HW,2013-03-28 06:10:00,
2013-03-27 23:15:00,40.1,17.1,30.10,West,270,5.4,7.2,39,0.00,,,0.00,WUHU216HW,2013-03-28 06:15:00,
2013-03-27 23:20:00,40.0,16.9,30.10,WSW,248,3.6,6.3,39,0.00,,,0.00,WUHU216HW,2013-03-28 06:20:00,
2013-03-27 23:25:00,40.0,16.9,30.10,WSW,248,5.6,7.4,39,0.00,,,0.00,WUHU216HW,2013-03-28 06:25:00,
2013-03-27 23:30:00,40.0,17.6,30.10,WSW,248,7.2,8.5,40,0.00,,,0.00,WUHU216HW,2013-03-28 06:30:00,
2013-03-27 23:35:00,40.0,16.9,30.10,WSW,248,5.4,8.5,39,0.00,,,0.00,WUHU216HW,2013-03-28 06:35:00,
2013-03-27 23:40:00,40.0,17.6,30.10,West,270,4.0,7.2,40,0.00,,,0.00,WUHU216HW,2013-03-28 06:40:00,
2013-03-27 23:45:00,40.0,17.6,30.10,WSW,248,6.5,6.7,40,0.00,,,0.00,WUHU216HW,2013-03-28 06:45:00,
2013-03-27 23:50:00,39.8,17.4,30.10,WSW,248,4.7,6.9,40,0.00,,,0.00,WUHU216HW,2013-03-28 06:50:00,
2013-03-27 23:55:00,39.6,17.3,30.10,WSW,248,2.5,7.6,40,0.00,,,0.00,WUHU216HW,2013-03-28 06:55:00,